User: anonymous   Login
Location: Unspecified
(0.0000°N, 0.0000°E)
Time: 23:32:59
(UTC+00:00)
Language:

EINSTEIN PROBE - Orbit

View from above orbital plane
View from above orbital plane
View from above satellite
View from above satellite

Ground track
Ground track

The orbit is defined by the following mean orbital elements,

1 58753U          26145.63872340 +.00000000 +00000-0 +19281-3 0 00006
2 58753  29.0002   0.1084 0009601 338.1878  21.8311 15.01759134    02
Epoch (UTC): 25 May 2026 15:19:45
Eccentricity: 0.0009601
inclination: 29.0002°
perigee height: 555 km
apogee height: 568 km
right ascension of ascending node: 0.1084°
argument of perigee: 338.1878°
revolutions per day: 15.01759134
mean anomaly at epoch: 21.8311°

The dashed part of the orbit path shows where the satellite is in the earth's shadow,  

DLR